KG6LPP Weather Reports


time (UTC)temp
C
wind
direction
speed
KPH
gust
KPH
rain 1hr
cm
rain 24hr
cm
rain mn
cm
humidity
%
barometer
mb
20260506020029 10 340 0.0 0.0 0.00 0.10 0.03 64 999.9
20260506014528 10 340 0.0 0.0 0.00 0.10 0.03 63 999.5
20260506011555 11 340 0.0 0.0 0.00 0.10 0.03 59 999.2
20260506010023 11 55 0.0 0.0 0.00 0.10 0.03 60 999.4
20260506004522 11 55 0.0 0.0 0.00 0.10 0.03 60 998.8
20260506001527 12 55 0.0 0.0 0.00 0.10 0.03 58 998.7
20260506000044 12 53 0.0 0.0 0.00 0.10 0.03 56 998.8
20260505234538 12 53 0.0 0.0 0.03 0.10 0.03 54 998.5
20260505231522 13 281 0.0 0.0 0.03 0.10 0.03 53 998.5
20260505230044 13 296 0.0 0.0 0.03 0.10 0.03 60 998.5
20260505224532 11 292 0.0 0.0 0.00 0.08 0.00 66 998.6
20260505221514 11 138 0.0 0.0 0.00 0.08 0.00 79 999.2
20260505220009 11 36 0.0 1.6 0.00 0.08 0.00 69 999.1
20260505214509 13 51 0.0 0.0 0.00 0.08 0.00 63 999.0
20260505211511 16 141 0.0 0.0 0.00 0.08 0.08 52 998.9
20260505210007 16 80 0.0 1.6 0.00 0.08 0.08 55 998.6
20260505204507 14 315 0.0 0.0 0.00 0.08 0.08 57 998.6
20260505201504 14 316 0.0 4.8 0.00 0.08 0.08 61 998.9
20260505200004 14 58 0.0 1.6 0.03 0.08 0.08 61 998.6
20260505194504 13 325 0.0 0.0 0.08 0.08 0.08 67 998.7
20260505191507 11 22 0.0 0.0 0.08 0.08 0.08 89 999.2
20260505190004 11 59 0.0 0.0 0.05 0.05 0.05 78 999.6
20260505184507 13 61 0.0 0.0 0.00 0.00 0.00 60 999.5
20260505181503 14 15 0.0 0.0 0.00 0.00 0.00 51 999.3
20260505180003 15 53 0.0 1.6 0.00 0.00 0.00 49 999.3
20260505174502 13 53 0.0 0.0 0.00 0.00 0.00 51 999.3
20260505171625 12 36 0.0 0.0 0.00 0.00 0.00 55 999.5
20260505170057 10 36 0.0 0.0 0.00 0.00 0.00 61 999.6
20260505164605 10 36 0.0 0.0 0.00 0.00 0.00 60 999.6
20260505163156 10 44 0.0 0.0 0.00 0.00 0.00 62 999.6
20260505161556 10 41 0.0 0.0 0.00 0.00 0.00 62 999.8
20260505153152 10 305 0.0 0.0 0.00 0.00 0.00 59 1000.1
20260505151553 10 348 0.0 0.0 0.00 0.00 0.00 60 1000.0
20260505150109 10 317 0.0 0.0 0.00 0.00 0.00 59 1000.0
20260505124553 10 294 0.0 0.0 0.00 0.00 0.00 59 999.6
20260505123145 10 294 0.0 0.0 0.00 0.00 0.00 54 999.8
20260505121616 10 294 0.0 0.0 0.00 0.00 0.00 51 999.8
20260505120042 10 294 0.0 0.0 0.00 0.00 0.00 49 999.6
20260505114541 10 294 0.0 0.0 0.00 0.00 0.00 48 999.4
20260505113141 10 294 0.0 0.0 0.00 0.00 0.00 45 999.6
20260505111547 10 294 0.0 0.0 0.00 0.00 0.00 43 999.6
20260505101540 11 294 0.0 0.0 0.00 0.00 0.00 37 999.2
20260505100041 11 294 0.0 0.0 0.00 0.00 0.00 35 999.2
20260505094532 11 260 0.0 1.6 0.00 0.00 0.00 35 998.7
20260505093131 11 51 0.0 0.0 0.00 0.00 0.00 36 998.5
20260505091537 12 309 0.0 1.6 0.00 0.00 0.00 36 998.5
20260505090032 12 278 0.0 4.8 0.00 0.00 0.00 38 999.0
20260505084530 12 324 0.0 0.0 0.00 0.00 0.00 40 999.2
20260505083128 12 207 0.0 0.0 0.00 0.00 0.00 39 999.1
20260505081530 12 308 0.0 0.0 0.00 0.00 0.00 39 999.3
20260505080034 12 166 0.0 1.6 0.00 0.00 0.00 40 999.4
20260505074522 13 279 0.0 9.7 0.00 0.00 0.00 37 999.2
20260505073121 13 244 0.0 0.0 0.00 0.00 0.00 36 999.4
20260505071528 13 291 0.0 0.0 0.00 0.00 0.00 35 999.4
20260505070018 13 306 0.0 0.0 0.00 0.00 0.00 34 999.2
20260505064517 13 68 0.0 1.6 0.00 0.00 0.00 33 999.4
20260505063116 13 300 0.0 0.0 0.00 0.00 0.00 33 999.6
20260505061520 14 104 0.0 1.6 0.00 0.00 0.00 32 999.6
20260505060014 14 315 0.0 1.6 0.00 0.00 0.00 31 999.5
20260505054516 14 318 0.0 3.2 0.00 0.00 0.00 31 999.7
20260505053111 15 318 0.0 0.0 0.00 0.00 0.00 29 999.7
20260505051517 15 307 0.0 0.0 0.00 0.00 0.00 29 999.6
20260505041510 15 311 0.0 0.0 0.00 0.00 0.00 29 999.8
20260505040009 16 205 0.0 0.0 0.00 0.00 0.00 28 1000.0
20260505034506 16 307 0.0 0.0 0.00 0.00 0.00 28 1000.0
20260505033105 16 311 0.0 0.0 0.00 0.00 0.00 27 999.8
20260505031503 16 315 0.0 1.6 0.00 0.00 0.00 28 999.8
20260505030107 16 355 0.0 0.0 0.00 0.00 0.00 26 999.6
20260505024615 17 263 0.0 4.8 0.00 0.00 0.00 26 999.5
20260505023109 17 302 0.0 1.6 0.00 0.00 0.00 26 999.4
20260505021559 17 336 0.0 0.0 0.00 0.00 0.00 26 999.2